Rocky Mount, NC

6:23 PM EDT on July 25, 2017 (GMT -0400)
Rocky Mount-Wilson Regional

Weather History for KRWI - September, 2013

Change the Weather History Date:

Sunday, September 15, 2013

  Actual Average Record
Temperature  
Mean Temperature 66 °F -  
Max Temperature 81 °F 83 °F 94 °F (1956)
Min Temperature 53 °F 60 °F 42 °F (1985)
Cooling Degree Days 2    
Growing Degree Days 16 (Base 50)    
Moisture  
Dew Point 55 °F    
Average Humidity 72    
Maximum Humidity 96    
Minimum Humidity 40    
Precipitation  
Precipitation 0.00 in - - ()
Sea Level Pressure  
Sea Level Pressure 30.19 in    
Wind  
Wind Speed 2 mph (East)    
Max Wind Speed 7 mph    
Max Gust Speed -    
Visibility 10 miles    
Events      
Averages and records for this station are not official NWS values.
T = Trace of Precipitation, MM = Missing Value Source: NWS Daily Summary

Daily Weather History Graph

Daily Weather History Graph

Search for Another Location

Airport or City:

Trip Planner

Search our weather history database for the weather conditions in past years. The results will help you decide how hot, cold, wet, or windy it might be!

Date:

Astronomy

Sep. 15, 2013 Rise Set
Actual Time 6:54 AM EDT 7:18 PM EDT
Civil Twilight 6:28 AM EDT 7:44 PM EDT
Nautical Twilight 5:58 AM EDT 8:14 PM EDT
Astronomical Twilight 5:27 AM EDT 8:44 PM EDT
Moon 4:38 PM EDT (9/15) 2:36 AM EDT (9/15)
Length of Visible Light 13h 15m
Length of Day
12h 24m
Waxing Gibbous, 82% of the Moon is Illuminated
Sep 15
Waxing Gibbous
Sep 19
Full
Sep 26
Last Quarter
Oct 4
New
Oct 11
First Quarter

Hourly Weather History & Observations

Time (EDT) Temp. Heat Index Dew Point Humidity Pressure Visibility Wind Dir Wind Speed Gust Speed Precip Events Conditions
12:53 AM 57.0 °F - 52.0 °F 83% 30.17 in 10.0 mi NNE 3.5 mph - N/A   Clear
1:53 AM 55.9 °F - 52.0 °F 87% 30.17 in 10.0 mi Calm Calm - N/A   Clear
2:53 AM 55.0 °F - 52.0 °F 89% 30.18 in 10.0 mi Calm Calm - N/A   Clear
3:53 AM 55.0 °F - 53.1 °F 93% 30.18 in 10.0 mi Calm Calm - N/A   Clear
4:53 AM 55.0 °F - 53.1 °F 93% 30.18 in 10.0 mi Calm Calm - N/A   Clear
5:53 AM 53.1 °F - 52.0 °F 96% 30.19 in 10.0 mi NE 5.8 mph - N/A   Clear
6:53 AM 53.1 °F - 51.1 °F 93% 30.20 in 10.0 mi Calm Calm - N/A   Clear
7:53 AM 55.9 °F - 54.0 °F 93% 30.22 in 10.0 mi Calm Calm - N/A   Clear
8:53 AM 61.0 °F - 55.9 °F 83% 30.23 in 10.0 mi Calm Calm - N/A   Clear
9:53 AM 66.9 °F - 55.9 °F 68% 30.24 in 10.0 mi ESE 4.6 mph - N/A   Clear
10:53 AM 72.0 °F - 55.9 °F 57% 30.25 in 10.0 mi NE 3.5 mph - N/A   Clear
11:53 AM 75.0 °F - 54.0 °F 48% 30.25 in 10.0 mi NE 5.8 mph - N/A   Clear
12:53 PM 77.0 °F - 52.0 °F 42% 30.23 in 10.0 mi Calm Calm - N/A   Clear
1:53 PM 79.0 °F - 54.0 °F 42% 30.21 in 10.0 mi WSW 4.6 mph - N/A   Clear
2:53 PM 80.1 °F 80.0 °F 54.0 °F 40% 30.19 in 10.0 mi ESE 4.6 mph - N/A   Clear
3:53 PM 80.1 °F 80.0 °F 54.0 °F 40% 30.16 in 10.0 mi South 4.6 mph - N/A   Clear
4:53 PM 80.1 °F 80.1 °F 55.0 °F 42% 30.16 in 10.0 mi West 6.9 mph - N/A   Clear
5:53 PM 80.1 °F 80.2 °F 55.9 °F 43% 30.14 in 10.0 mi South 3.5 mph - N/A   Clear
6:53 PM 73.0 °F - 61.0 °F 66% 30.14 in 10.0 mi Calm Calm - N/A   Clear
7:53 PM 64.9 °F - 59.0 °F 81% 30.14 in 10.0 mi Calm Calm - N/A   Clear
8:53 PM 64.0 °F - 59.0 °F 84% 30.15 in 10.0 mi Calm Calm - N/A   Clear
9:53 PM 62.1 °F - 59.0 °F 90% 30.16 in 10.0 mi Calm Calm - N/A   Clear
10:53 PM 61.0 °F - 59.0 °F 93% 30.16 in 10.0 mi Calm Calm - N/A   Clear
11:53 PM 63.0 °F - 59.0 °F 87% 30.16 in 10.0 mi Calm Calm - N/A   Scattered Clouds